記事タイトル:Comet C/2003 U1 (LINEAR) 

最新の情報は「更新」や「再読み込み」ボタンを押してリロードしてご覧ください。

書き込み欄へ  ヘルプ
お名前: 佐藤 裕久   
Comet C/2003 U1 (LINEAR)
L. MangusoとH. Stange (Lincoln研究所、MIT)の通報によると、LINEARにより彗星を
発見した。直ちにNEO Confirmation Pageに公表され、CCD観測者によって確認された。
LINEARでは、尾は確認できなかった。10月20.3日UT、J. E. McGaha (Sabino Canyon 
天文台、0.3-m反射+CCD)はP.A. 240°に細長く伸びた微かな10″のコマがあり 、
J. Young (Table Mountain 天文台、0.6-m反射+CCD)は6″のコマとP.A. 276°に16″
の尾がある。

発見位置は次のとおり、

     2003 UT             R.A. (2000) Decl.       Mag.
     Oct. 19.37824    5 27 58.79   - 3 17 53.0   18.2

暫定放物線軌道要素と位置推算表は次のとおり、

Orbital elements:
    C/2003 U1 (LINEAR)
T 2003 Nov. 1.971 TT                                    MPC
q   1.80838              (2000.0)            P               Q
                   Peri.  276.587       +0.681352       +0.712800
                   Node   321.837       +0.731507       -0.655153
e   1.0            Incl.  164.381       +0.025635       -0.250381
From 25 observations 2003 Oct. 19-20.

Ephemeris:
    C/2003 U1 (LINEAR)
Date    TT    R. A. (2000) Decl.     Delta      r     Elong.  Phase   m1
2003 10 18    05 34.86   -02 27.6    1.126    1.818   117.7    29.0  17.4
2003 10 23    05 07.59   -05 40.1    1.025    1.813   127.6    25.8  17.1
2003 10 28    04 33.60   -09 16.5    0.948    1.810   137.5    21.8  17.0
2003 11 02    03 53.16   -12 58.7    0.903    1.808   145.2    18.3  16.9
2003 11 07    03 08.50   -16 16.6    0.895    1.810   147.2    17.3  16.8
2003 11 12    02 23.54   -18 42.3    0.926    1.813   142.3    19.5  16.9
2003 11 17    01 42.38   -20 06.0    0.991    1.819   133.4    23.3  17.1
2003 11 22    01 07.47   -20 37.3    1.085    1.826   123.5    26.8  17.3
2003 11 27    00 39.34   -20 33.3    1.198    1.836   114.0    29.4  17.5
2003 12 02    00 17.30   -20 08.9    1.326    1.849   105.2    31.0  17.8
2003 12 07    00 00.24   -19 34.1    1.462    1.863    97.2    31.6  18.0

(IAUC 8227、MPEC 2003-U25)
[2003年10月21日 21時33分1秒]

この記事への返信をどうぞ。
氏名
E-mail URL



記事一覧に戻る